Location: Unspecified
(47.4992°N, 121.7766°W)
Time: 18:36:36
(UTC-07:00)

ISS - Visible Passes

Search period start: 29 March 2023 00:00
Search period end: 08 April 2023 00:00
Orbit: 413 x 421 km, 51.6° (Epoch: 29 March)

Date Brightness Start Highest point End Pass type
(mag) Time Alt. Az. Time Alt. Az. Time Alt. Az.
29 Mar -3.8 20:50:51 10° WNW 20:54:12 76° SSW 20:55:42 30° SE visible
29 Mar -0.6 22:28:36 10° W 22:28:37 10° W 22:28:37 10° W visible
30 Mar -3.7 20:02:36 10° WNW 20:05:57 77° NNE 20:09:18 10° ESE visible
30 Mar -1.9 21:39:46 10° W 21:42:26 22° SW 21:42:26 22° SW visible
31 Mar -2.5 20:51:11 10° WNW 20:54:15 34° SW 20:56:14 18° SSE visible
01 Apr -3.1 20:02:41 10° WNW 20:05:58 52° SSW 20:09:13 10° SE visible
02 Apr -1.2 20:51:50 10° W 20:53:50 15° SW 20:55:51 10° S visible
